Location: Emory University Observatory
(33.7903°N, 84.3267°W)
Time: 19:42:24
(UTC-04:00)

Tiangong 1 - Pass Details

Date: 11 October 2017
Orbit: 293 x 320 km, 42.8° (Epoch: 19 October)

Event Time Altitude Azimuth Distance (km) Brightness Sun altitude
Rises 19:30:36 0° 298° (WNW) 2,043 5.8 -5.5°
Reaches altitude 10° 19:33:26 10° 332° (NNW) 1,206 3.9 -6.1°
Maximum altitude 19:34:40 12° 359° (N) 1,083 3.3 -6.3°
Drops below altitude 10° 19:35:53 10° 26° (NNE) 1,199 3.3 -6.6°
Enters shadow 19:37:19 - 48° (NE) 1,559 3.7 -6.9°
